Dewpoint
37 39 39 39 41 41 32 24 -4 21 19 8 11 7 12 13 12 14 13 13 10 9 5 5 7 7 12 18 15 10 5 0 0 2 6 19 10 8 9 2 6 9 3 -3
42 40 41 39 41 40 28 23 23 23 15 4 6 10 11 12 10 10 10 10 12 8 8 10 7 10 13 11 13 8 9 2 -5 -7 -4 1 4 6 8 7 8 -0 -0 -2
38 39 38 38 41 40 27 17 12 16 16 13 9 10 10 10 14 14 13 11 10 9 9 10 9 9 9 14 12 18 14 1 -6 -10 -4 3 -1 2 5 6 3 -2 -2 -1
38 40 40 40 40 38 24 19 14 16 10 11 12 13 11 10 10 16 16 12 13 11 9 8 7 8 8 11 15 10 8 0 1 8 4 4 3 -1 2 -0 1 -3 -2 -2
38 36 35 37 39 35 25 19 16 19 15 14 12 14 12 11 12 15 12 12 11 12 8 7 7 9 12 10 14 12 11 3 8 5 9 6 1 1 -2 1 1 1 2 -1
39 37 37 40 40 35 28 25 25 24 19 15 13 12 11 11 13 13 13 13 11 9 9 12 11 11 12 11 10 10 11 2 -1 -5 5 5 -7 -2 -1 1 2 2 -5 2
38 39 38 40 40 40 37 30 31 23 17 19 16 15 13 12 16 16 12 12 11 12 13 12 11 12 13 13 13 13 7 8 6 -4 -3 -14 -2 7 3 0 3 4 4 5
36 38 39 38 36 36 37 36 32 28 19 21 21 20 18 18 23 20 19 14 13 14 11 8 6 5 7 12 13 11 11 11 -1 -6 -11 -7 -3 -1 -0 -4 -1 5 4 5
40 40 39 35 34 34 37 37 37 32 23 16 19 20 21 19 16 15 13 15 17 13 10 8 -1 1 6 7 8 16 12 10 3 -9 -15 -14 -4 0 7 4 -8 6 6 5
35 35 34 34 34 37 37 36 38 33 23 19 20 21 19 19 15 10 13 15 14 13 9 7 3 1 8 2 2 2 4 -1 -9 -5 -22 -9 -3 1 6 -15 -13 4 6 5
34 33 34 36 37 35 36 35 37 32 23 19 24 25 21 19 19 13 11 9 12 12 6 5 3 3 1 -2 -3 -3 -5 -8 -8 -12 -21 -19 1 -0 -5 -7 4 5 4 5
35 33 32 36 33 35 34 29 33 35 30 25 27 28 28 27 22 18 18 9 13 15 8 4 7 5 -0 -7 -8 -4 -6 -8 -13 -15 -14 -7 1 -4 3 1 1 3 3 4
32 31 32 34 33 32 34 30 31 33 26 24 25 22 28 27 27 28 14 16 19 10 11 12 10 3 5 -2 -7 -7 -4 -3 -10 -10 -6 -3 1 5 6 6 4 5 5 5
31 30 32 33 33 36 33 28 32 32 25 19 17 26 23 27 24 26 26 23 21 19 15 6 6 3 6 -4 -3 -7 -5 -4 -11 -13 -7 -3 -3 2 4 5 5 4 5 5
31 31 32 31 31 35 33 33 33 34 26 17 16 23 23 20 19 20 20 21 18 16 10 6 2 8 1 -1 -3 -8 -4 -8 -9 -13 -6 -6 -9 -4 1 0 4 5 4 3
30 31 29 30 33 34 28 24 31 29 29 21 11 20 16 14 18 13 13 17 16 12 4 3 4 9 -0 -10 -12 -5 -2 -2 -4 -5 -3 -5 -2 -7 -5 -7 -4 1 -1 -0
28 33 31 30 28 24 20 18 22 32 31 18 12 11 10 9 18 17 13 12 9 10 6 4 2 1 -1 -8 -13 -4 -2 -2 -3 -3 -3 -3 -5 -7 -6 -5 -4 -1 -3 -9
26 29 29 28 27 26 22 22 21 28 21 12 5 5 8 9 11 11 14 3 6 8 5 6 -0 -0 -2 -11 -6 -3 -1 1 2 1 -0 -1 -2 -0 -4 -4 -3 -2 -7 -9
27 29 27 20 16 12 15 21 19 18 12 6 5 -1 -0 8 10 15 10 11 3 10 2 0 -4 -6 -11 -7 -6 -3 -2 -4 -1 2 5 4 2 4 3 0 -3 -5 -1 -3
23 17 11 11 9 19 16 10 6 6 8 8 1 2 1 5 7 10 7 5 2 -5 0 -1 -6 -8 -2 1 1 -0 2 3 5 2 0 2 2 3 5 2 0 -1 -2 0
15 12 10 7 10 3 -1 -1 -4 -4 -10 1 1 1 -1 6 3 6 9 -2 -0 -11 -2 -9 -10 -14 -6 0 0 3 4 7 5 5 7 7 5 5 5 5 5 6 5 3
13 8 4 -1 -3 -6 -14 -17 -11 -12 -11 -2 -5 -1 1 3 13 7 5 -2 -4 -13 -2 -11 -17 -8 -3 1 2 4 6 5 3 4 5 5 4 7 5 6 6 6 5 5
2 -1 -11 -8 -12 -18 -22 -25 -23 -20 -7 -3 -0 -5 2 5 8 1 -1 -9 -7 -5 -13 -13 -11 -3 1 3 2 1 2 3 1 1 2 3 4 6 8 6 7 7 6 6
-6 -16 -17 -20 -23 -14 -15 -12 -9 -4 -1 -0 0 -3 -0 4 -2 -2 -13 -5 -8 -18 -19 -18 -11 -4 1 1 2 0 1 3 2 1 1 2 3 5 4 3 7 6 5 7
-16 -13 -21 -19 -6 -3 -7 -4 -3 0 4 1 -3 -4 -5 -8 -11 -7 -11 -17 -17 -13 -14 -7 -2 1 2 2 1 1 1 2 2 3 2 3 4 4 3 3 6 4 3 2
-10 -11 -18 -6 -12 -13 -11 -11 -8 -0 0 1 -8 -21 -23 -19 -17 -18 -18 -22 -18 -12 -5 -1 1 0 1 1 2 3 3 2 2 2 2 1 2 2 0 1 2 2 2 0
-16 -15 -3 -4 -8 -9 -6 -3 -4 -1 -5 -18 -19 -24 -24 -20 -26 -24 -12 -18 -9 -3 -2 -0 -0 -2 -3 -6 -2 0 1 1 -0 1 1 -0 1 -2 -1 -3 1 2 2 -2
Lifted_Index
17 17 16 16 16 16 16 15 14 15 15 14 13 13 13 12 11 10 9 9 8 8 8 8 7 5 3 2 2 2 2 2 2 3 3 3 4 4 4 3 3 3 2 2
16 16 16 16 15 16 16 15 15 15 15 14 13 12 12 11 10 9 9 8 8 8 7 7 6 5 3 3 2 2 2 2 2 2 2 3 3 4 4 3 3 3 3 2
16 16 16 15 15 15 16 15 15 15 15 14 13 12 11 10 9 9 8 8 8 7 6 5 5 4 3 3 2 2 2 1 1 2 2 2 3 3 3 3 3 3 3 3
16 16 15 15 15 15 15 15 15 15 14 13 12 10 9 8 8 8 8 8 7 6 5 4 4 3 3 3 3 2 2 1 1 1 2 2 2 3 3 3 3 4 5 5
16 15 15 14 14 15 15 15 15 14 13 12 10 9 8 7 7 8 8 7 6 5 4 4 3 3 3 3 3 2 2 1 1 1 1 2 2 3 3 4 4 5 6 7
15 15 14 14 13 14 14 14 14 13 12 11 9 8 7 7 7 7 7 6 5 4 3 3 3 3 3 3 3 2 2 1 1 1 1 1 2 3 4 5 6 7 7 9
14 14 14 13 13 13 13 13 12 11 10 9 8 7 7 7 6 6 5 5 4 3 3 3 3 3 3 3 2 2 2 1 1 1 1 1 1 3 4 4 6 7 9 10
14 14 13 13 13 13 13 12 10 9 9 8 7 7 7 6 5 4 4 3 3 3 3 3 2 2 2 2 2 2 1 1 1 1 1 1 1 2 4 4 5 7 9 10
14 14 14 14 13 13 12 10 9 8 7 7 7 7 6 5 4 3 3 3 3 3 2 2 2 2 2 1 1 1 1 1 1 1 1 1 1 3 4 4 4 7 9 9
14 14 14 14 13 12 10 9 8 7 7 7 7 6 6 5 4 3 2 2 3 2 2 2 2 2 1 1 1 1 1 1 1 1 1 1 2 4 4 4 4 7 8 9
15 15 14 13 12 10 9 8 7 7 7 7 7 6 5 4 3 3 2 2 2 2 2 2 2 1 1 1 1 1 1 1 1 1 1 2 4 4 4 5 6 7 8 9
15 14 13 12 10 9 8 7 7 8 7 7 6 6 5 4 3 2 2 2 2 2 2 1 1 1 1 1 1 2 2 2 2 2 2 4 5 6 6 7 7 8 8 9
15 14 12 11 9 8 8 8 8 8 7 6 6 5 5 4 3 2 2 2 2 2 2 1 1 1 1 1 1 2 2 2 2 3 3 5 6 8 8 8 8 8 9 9
14 13 11 9 9 8 8 8 8 8 7 6 5 5 5 4 3 2 2 2 2 2 1 1 1 1 1 1 1 2 2 3 3 3 4 6 7 8 9 9 9 9 9 9
13 11 10 9 9 9 9 9 8 7 6 5 5 5 4 4 3 2 2 2 2 1 1 1 1 2 2 2 2 3 4 4 4 4 6 7 7 8 9 9 9 9 9 9
11 10 10 10 9 9 9 9 8 7 6 5 4 4 4 3 3 2 2 2 2 1 1 1 2 3 2 2 2 4 7 7 7 7 8 8 8 9 9 9 9 9 9 9
9 9 10 10 10 10 9 9 8 7 5 4 4 4 4 3 3 2 2 2 2 2 2 2 3 3 3 3 4 6 8 9 9 9 9 9 9 8 9 9 9 9 9 9
9 9 10 10 10 10 9 9 9 7 5 4 3 3 3 3 3 2 2 2 2 2 2 3 3 3 3 4 6 8 9 10 10 10 10 9 9 9 9 9 8 8 8 8
9 9 10 10 10 10 9 9 9 8 6 5 4 3 3 3 3 3 3 3 3 3 3 4 4 4 5 7 8 9 10 10 10 10 10 9 9 9 9 8 8 8 8 8
10 10 10 10 10 10 9 9 8 7 7 6 6 5 4 4 3 3 3 3 2 3 3 4 4 5 7 9 10 10 10 10 10 10 10 9 9 9 9 9 9 8 8 8
11 11 11 11 11 10 9 8 7 7 7 7 7 6 5 5 4 3 3 3 2 3 3 4 4 6 8 10 10 10 10 11 11 10 10 10 10 10 9 9 9 9 9 9
11 11 11 11 10 9 8 7 7 7 7 8 7 7 6 6 5 4 3 3 3 3 4 4 4 7 9 10 10 10 10 10 11 11 11 11 11 11 10 10 10 10 10 10
11 11 10 10 10 9 8 8 8 8 9 9 8 7 7 6 6 5 4 3 3 4 3 4 6 8 10 10 10 10 10 10 10 10 11 11 11 11 11 11 11 11 11 11
11 10 10 10 10 10 10 9 9 10 10 9 9 8 7 7 6 5 4 4 4 3 3 4 7 9 10 10 10 10 10 10 10 10 10 11 11 11 11 11 11 11 11 11
11 11 10 10 11 11 11 11 11 11 11 10 9 8 7 6 5 5 4 4 3 4 5 6 8 9 10 10 10 10 10 10 10 10 10 10 10 10 11 11 11 11 11 11
12 12 12 11 11 11 11 10 11 11 10 9 8 7 7 6 6 5 5 4 4 5 7 8 9 10 10 10 10 10 10 10 10 10 10 10 10 10 10 11 11 11 11 11
13 13 12 12 11 10 10 10 10 11 10 9 8 7 6 6 6 5 5 5 6 7 8 9 10 9 9 10 10 10 10 10 10 10 10 10 10 10 10 10 10 11 11 11